This demonstration page uses our WeatherBlox Daily Observations layout. Learn more.

Left ArrowRight Arrow

40.92945, -100.16068

Hourly Observations for April 28, 2019

Temp ( °F °C ) Dew Point ( °F °C ) Humidity (%) Winds ( mph kmh ) Pressure ( in mb ) Visibility ( mi km ) Precip ( " mm )
12:15 am 00:15 Cloudy 42 5.4 35 1.5 76 76 ESE 14 22 30.05 1018 10 16 0.00 0.00
12:35 am 00:35 Cloudy 41 5.2 35 1.5 77 77 SE 12 19 30.05 1017 10 16 0.00 0.00
12:55 am 00:55 Cloudy 41 5.2 35 1.7 78 78 ESE 16 26 30.05 1017 10 16 0.00 0.00
1:15 am 01:15 Cloudy 41 5.1 35 1.5 78 78 ESE 16 26 30.04 1017 10 16 0.00 0.00
1:35 am 01:35 Cloudy 41 5.1 35 1.5 78 78 ESE 15 24 30.04 1017 10 16 0.00 0.00
1:55 am 01:55 Cloudy 41 4.8 35 1.5 79 79 ESE 15 24 30.04 1017 10 16 0.00 0.00
2:15 am 02:15 Cloudy 40 4.7 34 1.1 78 78 ESE 18 30 30.03 1017 10 16 0.00 0.00
2:35 am 02:35 Cloudy 40 4.6 34 1.3 79 79 ESE 16 26 30.02 1017 10 16 0.00 0.00
2:55 am 02:55 Cloudy 40 4.3 34 1 79 79 ESE 18 30 30.01 1016 10 16 0.00 0.00
3:15 am 03:15 Cloudy 40 4.3 34 1 79 79 ESE 15 24 30.01 1016 10 16 0.00 0.00
3:35 am 03:35 Cloudy 40 4.2 34 0.9 79 79 ESE 12 19 30.01 1016 10 16 0.00 0.00
3:55 am 03:55 Cloudy 39 4.1 34 0.9 80 80 SE 17 28 30.01 1016 10 16 0.00 0.00
4:15 am 04:15 Cloudy 39 3.9 33 0.7 80 80 SE 18 30 30.00 1016 10 16 0.00 0.00
4:35 am 04:35 Cloudy 39 4 33 0.8 80 80 SE 18 30 30.00 1016 10 16 0.00 0.00
4:55 am 04:55 Cloudy 39 3.8 34 1 82 82 SE 13 20 30.00 1016 10 16 0.00 0.00
5:15 am 05:15 Cloudy 38 3.6 33 0.7 82 82 SE 18 30 29.99 1016 10 16 0.00 0.00
5:35 am 05:35 Cloudy 38 3.3 33 0.5 82 82 SE 17 28 29.98 1015 10 16 0.00 0.00
5:55 am 05:55 Cloudy 38 3.1 33 0.3 82 82 SE 17 28 29.99 1015 10 16 0.00 0.00
6:15 am 06:15 Cloudy 38 3.1 33 0.5 83 83 SE 14 22 30.00 1016 10 16 0.00 0.00
6:35 am 06:35 Cloudy 38 3.1 33 0.5 83 83 SSE 15 24 30.00 1016 10 16 0.00 0.00
6:55 am 06:55 Cloudy 38 3.1 33 0.5 83 83 SE 15 24 30.02 1016 10 16 0.00 0.00
7:15 am 07:15 Cloudy 38 3.2 33 0.6 83 83 SE 15 24 30.02 1016 10 16 0.00 0.00
7:35 am 07:35 Cloudy 38 3.3 33 0.8 84 84 SSE 15 24 30.01 1016 10 16 0.00 0.00
7:55 am 07:55 Cloudy 38 3.3 34 0.9 84 84 SSE 13 20 30.02 1017 10 16 0.00 0.00
8:15 am 08:15 Cloudy 38 3.5 34 1.1 84 84 SSE 10 17 30.02 1017 10 16 0.00 0.00
8:35 am 08:35 Cloudy 38 3.6 34 1.3 85 85 S 15 24 30.01 1016 10 16 0.00 0.00
8:55 am 08:55 Cloudy 38 3.5 35 1.4 86 86 SSE 20 31 30.00 1016 10 16 0.00 0.00
9:15 am 09:15 Cloudy 38 3.6 35 1.5 86 86 SSE 15 24 29.99 1016 10 16 0.00 0.00
9:35 am 09:35 Cloudy 39 4 35 1.7 85 85 S 17 28 29.98 1015 10 16 0.00 0.00
9:55 am 09:55 Cloudy 39 4.1 35 1.5 83 83 SSE 18 30 29.98 1015 10 16 0.00 0.00
10:15 am 10:15 Cloudy 40 4.2 35 1.6 83 83 SSE 20 31 29.97 1015 10 16 0.00 0.00
10:35 am 10:35 Cloudy 40 4.7 36 2 83 83 S 18 30 29.96 1015 10 16 0.00 0.00
10:55 am 10:55 Cloudy 41 5 35 1.9 81 81 S 22 35 29.95 1014 10 16 0.00 0.00
11:15 am 11:15 Cloudy 42 5.6 36 2.1 78 78 S 22 35 29.93 1014 10 16 0.00 0.00
11:35 am 11:35 Cloudy 42 5.5 36 2 78 78 SSE 20 31 29.93 1014 10 16 0.00 0.00
11:55 am 11:55 Cloudy 42 5.6 36 2.1 78 78 SSE 18 30 29.92 1013 10 16 0.00 0.00
12:15 pm 12:15 Cloudy 43 6.3 37 2.5 77 77 SSE 17 28 29.90 1012 10 16 0.00 0.00
12:35 pm 12:35 Cloudy 45 7.3 37 3 74 74 S 18 30 29.88 1012 10 16 0.00 0.00
12:55 pm 12:55 Cloudy 47 8.5 38 3.1 69 69 S 20 31 29.86 1011 10 16 0.00 0.00
1:15 pm 13:15 Cloudy 49 9.2 38 3.5 68 68 S 18 30 29.84 1010 10 16 0.00 0.00
1:35 pm 13:35 Cloudy 51 10.5 39 4.1 65 65 S 17 28 29.80 1009 10 16 0.00 0.00
1:55 pm 13:55 Cloudy 53 11.4 41 4.8 64 64 SSE 16 26 29.77 1008 10 16 0.00 0.00
2:15 pm 14:15 Mostly Cloudy 54 12.2 40 4.7 60 60 S 21 33 29.76 1008 10 16 0.00 0.00
2:35 pm 14:35 Partly Cloudy 56 13.6 42 5.3 58 58 S 18 30 29.74 1007 10 16 0.00 0.00
2:55 pm 14:55 Sunny 58 14.3 42 5.5 56 56 S 21 33 29.72 1007 10 16 0.00 0.00
3:15 pm 15:15 Sunny 57 13.8 41 5 56 56 S 21 33 29.71 1006 10 16 0.00 0.00
3:35 pm 15:35 Sunny 59 15.2 42 5.5 53 53 SSE 22 35 29.66 1005 10 16 0.00 0.00
3:55 pm 15:55 Sunny 58 14.6 41 5.2 54 54 SSE 24 39 29.63 1003 10 16 0.00 0.00
4:15 pm 16:15 Sunny 62 16.4 42 5.4 48 48 SSE 23 37 29.62 1003 10 16 0.00 0.00
4:35 pm 16:35 Sunny 62 16.9 43 5.9 49 49 SSE 22 35 29.62 1003 10 16 0.00 0.00
4:55 pm 16:55 Sunny 63 17.1 43 6 48 48 SSE 18 30 29.62 1003 10 16 0.00 0.00
5:15 pm 17:15 Sunny 64 17.9 44 6.5 47 47 SSE 17 28 29.60 1002 10 16 0.00 0.00
5:35 pm 17:35 Sunny 62 16.9 42 5.8 48 48 SSE 16 26 29.60 1002 10 16 0.00 0.00
5:55 pm 17:55 Partly Cloudy 62 16.9 43 6 49 49 WSW 7 11 29.70 1006 10 16 0.00 0.00
6:15 pm 18:15 Cloudy 62 16.9 42 5.5 47 47 Calm 29.69 1005 10 16 0.00 0.00
6:35 pm 18:35 Mostly Cloudy 61 16.1 44 6.5 53 53 SE 5 7 29.70 1006 10 16 0.00 0.00
6:55 pm 18:55 Mostly Cloudy 60 15.7 45 7 56 56 Calm 29.72 1006 10 16 0.00 0.00
7:15 pm 19:15 Cloudy 59 14.9 46 7.5 61 61 NE 8 13 29.72 1006 10 16 0.00 0.00
7:35 pm 19:35 Cloudy with Light Rain 57 13.8 47 8.3 70 70 ESE 7 11 29.73 1007 10 16 0.00 0.00
7:55 pm 19:55 Cloudy with Light Rain 56 13.6 48 8.9 73 73 ESE 7 11 29.73 1007 7 11 0.04 1.02
8:15 pm 20:15 Cloudy with Rain 55 13 48 9.1 77 77 SE 3 6 29.71 1006 7 11 0.03 0.76
8:35 pm 20:35 Cloudy with Light Rain 55 12.9 48 8.8 76 76 SE 15 24 29.70 1006 10 16 0.04 1.02
8:55 pm 20:55 Partly Cloudy 55 12.5 48 8.7 78 78 SE 15 24 29.70 1006 10 16 0.05 1.27
9:15 pm 21:15 Clear 55 12.5 47 8.6 77 77 ESE 18 30 29.67 1005 10 16 0.00 0.00
9:35 pm 21:35 Partly Cloudy 54 12.1 47 8.5 79 79 E 14 22 29.69 1005 10 16 0.00 0.00
9:55 pm 21:55 Partly Cloudy 53 11.6 47 8.5 81 81 ESE 12 19 29.71 1006 10 16 0.00 0.00
10:15 pm 22:15 Clear 53 11.7 47 8.6 81 81 ESE 7 11 29.70 1006 10 16 0.00 0.00
10:35 pm 22:35 Mostly Cloudy 53 11.6 47 8.6 82 82 ESE 7 11 29.71 1006 10 16 0.00 0.00
10:55 pm 22:55 Cloudy 53 11.6 47 8.5 81 81 SE 8 13 29.72 1006 10 16 0.00 0.00
11:15 pm 23:15 Cloudy 53 11.5 48 8.9 84 84 NNW 14 22 29.81 1009 10 16 0.01 0.25
11:35 pm 23:35 Cloudy with Rain 53 11.9 48 8.9 82 82 N 10 17 29.81 1010 10 16 0.01 0.25
11:55 pm 23:55 Cloudy with Rain 53 11.5 49 9.3 86 86 NNW 12 19 29.82 1010 10 16 0.04 1.02

Powered by AerisWeather